Gainesville, TX

3:21 PM CDT on April 20, 2018 (GMT -0500)
Gainesville Municipal

Weather History for KGLE - February, 2013

Change the Weather History Date:

Tuesday, February 26, 2013

  Actual Average (KDTO) Record (KDTO)
Temperature  
Mean Temperature 43 °F -  
Max Temperature 51 °F 57 °F 88 °F (2009)
Min Temperature 35 °F 36 °F 21 °F (2002)
Degree Days  
Heating Degree Days 22    
Moisture  
Dew Point 31 °F    
Average Humidity 63    
Maximum Humidity 87    
Minimum Humidity 41    
Precipitation  
Precipitation 0.00 in - - ()
Sea Level Pressure  
Sea Level Pressure 29.86 in    
Wind  
Wind Speed 13 mph (NW)    
Max Wind Speed 18 mph    
Max Gust Speed 25 mph    
Visibility 10 miles    
Events      
Averages and records for this station are not official NWS values.
T = Trace of Precipitation, MM = Missing Value Source: NWS Daily Summary

Daily Weather History Graph

Daily Weather History Graph

Search for Another Location

Airport or City:

Astronomy

Feb. 26, 2013 Rise Set
Actual Time 7:00 AM CST 6:23 PM CST
Civil Twilight 6:35 AM CST 6:48 PM CST
Nautical Twilight 6:06 AM CST 7:17 PM CST
Astronomical Twilight 5:37 AM CST 7:46 PM CST
Moon 7:34 PM CST (2/26) 7:08 AM CST (2/26)
Length of Visible Light 12h 12m
Length of Day
11h 22m
Full, 99% of the Moon is Illuminated
Feb 26
Full
Mar 4
Last Quarter
Mar 11
New
Mar 19
First Quarter
Mar 27
Full

Hourly Weather History & Observations

Time (CST) Temp. Windchill Dew Point Humidity Pressure Visibility Wind Dir Wind Speed Gust Speed Precip Events Conditions
12:15 AM - - - N/A% - - North - - N/A   Unknown
12:35 AM - - - N/A% - - North - - N/A   Unknown
12:55 AM - - - N/A% 29.67 in - WNW 18.4 mph - N/A   Unknown
1:15 AM - - - N/A% - - North - - N/A   Unknown
1:35 AM - - - N/A% - - North - - N/A   Unknown
1:55 AM - - - N/A% - - North - - N/A   Unknown
2:15 AM - - - N/A% - - North - - N/A   Unknown
2:35 AM - - - N/A% - - North - - N/A   Unknown
2:55 AM - - - N/A% - - North - - N/A   Unknown
3:15 AM - - - N/A% - - North - - N/A   Unknown
3:35 AM - - - N/A% - - North - - N/A   Unknown
3:55 AM - - - N/A% - - North - - N/A   Unknown
4:15 AM - - - N/A% - - North - - N/A   Unknown
4:35 AM - - - N/A% - - North - - N/A   Unknown
4:55 AM - - - N/A% - - North - - N/A   Unknown
5:15 AM - - - N/A% - - North - - N/A   Unknown
5:35 AM - - - N/A% - - North - - N/A   Unknown
5:55 AM - - - N/A% - - North - - N/A   Unknown
6:15 AM - - - N/A% - - North - - N/A   Unknown
6:35 AM - - - N/A% - - North - - N/A   Unknown
6:55 AM - - - N/A% - - North - - N/A   Unknown
7:15 AM - - - N/A% - - North - - N/A   Unknown
7:35 AM - - - N/A% - - North - - N/A   Unknown
7:55 AM - - - N/A% - - North - - N/A   Unknown
8:15 AM 35.6 °F 25.9 °F 32.0 °F 87% 29.81 in 10.0 mi WNW 16.1 mph 20.7 mph N/A   Unknown
8:35 AM 35.6 °F 26.2 °F 32.0 °F 87% 29.82 in 10.0 mi WNW 15.0 mph 23.0 mph N/A   Overcast
8:55 AM 35.6 °F 26.2 °F 32.0 °F 87% 29.83 in 10.0 mi WNW 15.0 mph 21.9 mph N/A   Overcast
9:15 AM 37.4 °F 27.5 °F 32.0 °F 81% 29.83 in 10.0 mi WNW 18.4 mph 25.3 mph N/A   Scattered Clouds
9:35 AM 37.4 °F 27.5 °F 32.0 °F 81% 29.84 in 10.0 mi WNW 18.4 mph 25.3 mph N/A   Scattered Clouds
9:55 AM 39.2 °F 30.8 °F 32.0 °F 75% 29.85 in 10.0 mi WNW 15.0 mph 23.0 mph N/A   Mostly Cloudy
10:15 AM 42.8 °F 35.1 °F 33.8 °F 70% 29.85 in 10.0 mi NW 16.1 mph 23.0 mph N/A   Scattered Clouds
10:35 AM 44.6 °F 36.9 °F 33.8 °F 66% 29.85 in 10.0 mi NW 18.4 mph 21.9 mph N/A   Scattered Clouds
10:55 AM 44.6 °F 37.4 °F 32.0 °F 61% 29.87 in 10.0 mi WNW 16.1 mph 19.6 mph N/A   Scattered Clouds
11:15 AM 44.6 °F 37.4 °F 32.0 °F 61% 29.87 in 10.0 mi NW 16.1 mph 23.0 mph N/A   Clear
11:35 AM 46.4 °F 40.7 °F 32.0 °F 57% 29.89 in 10.0 mi NW 12.7 mph 18.4 mph N/A   Clear
11:55 AM 50.0 °F - 32.0 °F 50% 29.88 in 10.0 mi WNW 15.0 mph 19.6 mph N/A   Clear
12:15 PM 48.2 °F - 32.0 °F 54% 29.88 in 10.0 mi WNW 13.8 mph 19.6 mph N/A   Clear
12:35 PM 50.0 °F - 32.0 °F 50% 29.87 in 10.0 mi WNW 13.8 mph 20.7 mph N/A   Scattered Clouds
12:55 PM 50.0 °F - 32.0 °F 50% 29.87 in 10.0 mi WNW 16.1 mph 20.7 mph N/A   Clear
1:15 PM 50.0 °F - 32.0 °F 50% 29.87 in 10.0 mi WNW 17.3 mph - N/A   Clear
1:35 PM 50.0 °F - 30.2 °F 47% 29.86 in 10.0 mi NW 12.7 mph - N/A   Clear
1:55 PM 50.0 °F - 30.2 °F 47% 29.85 in 10.0 mi NW 13.8 mph - N/A   Clear
2:15 PM 51.8 °F - 30.2 °F 44% 29.84 in 10.0 mi WNW 13.8 mph - N/A   Clear
2:35 PM 50.0 °F - 28.4 °F 43% 29.84 in 10.0 mi NW 13.8 mph 17.3 mph N/A   Clear
2:55 PM 50.0 °F - 28.4 °F 43% 29.84 in 10.0 mi West 8.1 mph - N/A   Clear
3:15 PM 51.8 °F - 32.0 °F 47% 29.84 in 10.0 mi WNW 12.7 mph 16.1 mph N/A   Clear
3:35 PM 51.8 °F - 30.2 °F 44% 29.84 in 10.0 mi WNW 13.8 mph - N/A   Clear
3:55 PM 51.8 °F - 28.4 °F 41% 29.84 in 10.0 mi West 10.4 mph 18.4 mph N/A   Clear
4:15 PM 51.8 °F - 30.2 °F 44% 29.84 in 10.0 mi West 11.5 mph - N/A   Clear
4:35 PM 51.8 °F - 30.2 °F 44% 29.84 in 10.0 mi WNW 10.4 mph - N/A   Clear
4:55 PM 51.8 °F - 30.2 °F 44% 29.85 in 10.0 mi West 9.2 mph - N/A   Clear
5:15 PM 50.0 °F - 30.2 °F 47% 29.85 in 10.0 mi WNW 6.9 mph - N/A   Clear
5:35 PM 50.0 °F - 30.2 °F 47% 29.85 in 10.0 mi West 8.1 mph - N/A   Clear
5:55 PM 50.0 °F - 32.0 °F 50% 29.85 in 10.0 mi WNW 6.9 mph - N/A   Clear
6:15 PM 46.4 °F 43.5 °F 32.0 °F 57% 29.86 in 10.0 mi WNW 5.8 mph - N/A   Clear
6:35 PM 44.6 °F 43.1 °F 32.0 °F 61% 29.85 in 10.0 mi WNW 3.5 mph - N/A   Clear
6:55 PM 44.6 °F 41.4 °F 32.0 °F 61% 29.86 in 10.0 mi WNW 5.8 mph - N/A   Clear
7:15 PM 42.8 °F 39.3 °F 32.0 °F 66% 29.87 in 10.0 mi WNW 5.8 mph - N/A   Clear
7:35 PM 41.0 °F 37.1 °F 32.0 °F 70% 29.89 in 10.0 mi WNW 5.8 mph - N/A   Clear
7:55 PM 42.8 °F 38.6 °F 32.0 °F 66% 29.89 in 10.0 mi WNW 6.9 mph - N/A   Clear
8:15 PM 42.8 °F 38.6 °F 32.0 °F 66% 29.90 in 10.0 mi WNW 6.9 mph - N/A   Clear
8:35 PM 37.4 °F 32.8 °F 30.2 °F 75% 29.91 in 10.0 mi NW 5.8 mph - N/A   Clear
8:55 PM 37.4 °F 32.8 °F 30.2 °F 75% 29.91 in 10.0 mi NW 5.8 mph - N/A   Clear
9:15 PM 37.4 °F 32.8 °F 30.2 °F 75% 29.91 in 10.0 mi NNW 5.8 mph - N/A   Clear
9:35 PM 35.6 °F - 30.2 °F 81% 29.92 in 10.0 mi Calm Calm - N/A   Clear
9:55 PM 35.6 °F - 30.2 °F 81% 29.93 in 10.0 mi Calm Calm - N/A   Clear
10:15 PM 37.4 °F 30.8 °F 30.2 °F 75% 29.92 in 10.0 mi North 9.2 mph - N/A   Clear
10:35 PM 37.4 °F 31.4 °F 30.2 °F 75% 29.91 in 10.0 mi North 8.1 mph - N/A   Clear
10:55 PM 35.6 °F 30.7 °F 30.2 °F 81% 29.91 in 10.0 mi North 5.8 mph - N/A   Clear
11:15 PM 35.6 °F 30.7 °F 30.2 °F 81% 29.91 in 10.0 mi North 5.8 mph - N/A   Clear
11:35 PM 35.6 °F 29.9 °F 30.2 °F 81% 29.91 in 10.0 mi NNE 6.9 mph - N/A   Clear
11:55 PM 35.6 °F 31.7 °F 30.2 °F 81% 29.92 in 10.0 mi NNE 4.6 mph - N/A   Clear